STARLINK-31972, 59923

Orbit data source: Space-Track

STARLINK-31972, 59923 is a payload satellite owned by SpaceX/Seattle (US) in LEO that was launched on Sat, 01 Jun 2024 UTC via an FALCON 9 launch vehicle from the Air Force Eastern Test Range (AFETR). Payload-class satellites include a variety of spacecraft equipped with specific instruments for various scientific and technological missions. These include communications satellites like Starlink; space stations such as the ISS; scientific satellites like the Hubble; Earth observation satellites from companies like Planet Labs, Umbra, and HawkEye 360; GPS; miniature CubeSats for education and research; and military/defense satellites.

Loading next visibility...
Identifier
59923, 2024-106B
Orbit
LEO
Country
Flag of USUS
Related business
Manufacturer
SpaceX/Seattle
Mission
Operational Commercial Communications
Bus & Motor
STARLINK V2M, Unknown motor
Mass
730 kg wet, ~700 kg dry
Launch date (UTC)
2024-06-01 (2 years ago)
Launch vehicle
FALCON 9
Launch site
Air Force Eastern Test Range (AFETR)
Object type
Payload
Rocket body
Debris
Shape & HBR
Box + 2 Pan, 17.7 m
Radar Cross Section
33.884 m², Large (>1 m²)

Expand to show TLE details & history
Last TLE update: 14 hours ago

TLE from 14 hours ago
0 STARLINK-31972
1 59923U 24106B   25355.17366223  .00001402  00000-0  60475-4 0  9994
2 59923  43.0035  56.0401 0001147 244.5785 115.4948 15.27577187 88568
Epoch: 2025-12-21T04:10Z
TLE epoch observation values (Epoch: 2025-12-21T04:10:04.416Z)
Latitude
-0.00003°
Longitude
-96.46824°
Altitude
483.172 km
Speed
7.625 km/s
True Right ascension
03h 44m 09s
True Declination
0° 00' 00"
Sunlit
Object was in full shadow at epoch
Visualization orbit readout
Latitude
Unknown
Longitude
Unknown
Altitude
Unknown
Speed
Unknown
Apparent Right ascension
Unknown
Apparent Declination
Unknown
Sunlit
N/A
Visualization observer readout
Local Sidereal Time
17:11:55
Azimuth
Unknown
Elevation
Unknown
Doppler factor
Unknown
Orbital elements
Apogee altitude
485.789 km
Perigee altitude
484.215 km
Semi-major axis
6,863.139 km
Eccentricity
0.00011
Inclination
43.0035°
RAAN
56.0401°
Arg. of periapsis
244.5785°
True anomaly
115.50666°
Mean anomaly
115.4948°
Eccentric anomaly
115.50073°
Mean motion
3.81732 °/min
Orbital period
94.31 mins
BSTAR
0.000060475
Loading maneuver chart data...
Computing Atmospheric mass density...
Loading historical data...
Loading historical data...
Loading historical data...
Loading historical data...
Loading historical data...
Loading historical data...
Loading historical data...

Documentation

Showing up to 5 results
|